Hurricane Symbol View the latest observations near East Pacific Tropical Storm Bud.

Station KGVW - Galveston 209A (Arena Offshore) Image indicating link to RSS feed of recent meteorological observations for station KGVW


Conditions at KGVW as of
(8:35 pm CDT on 07/24/2024)
0135 GMT on 07/25/2024:
     

Click on the graph icon in the table below to see a time series plot of the last five days of that observation.

5-day plot - Wind Direction Wind Direction (WDIR): SE ( 130 deg true )
5-day plot - Wind Speed Wind Speed (WSPD): 5.1 kts
5-day plot - Air Temperature Air Temperature (ATMP): 80.6 °F
5-day plot - Dew Point Dew Point (DEWP): 73.4 °F
5-day plot - Visibility Visibility (VIS): 8.7 nmi
Previous observations
TIME
(CDT)
5-day plot - Wind Direction
WDIR
 
5-day plot - Wind Speed
WSPD
kts
5-day plot - Wind Gust
GST
kts
5-day plot - Wave Height
WVHT
ft
5-day plot - Dominant Wave Period
DPD
sec
5-day plot - Average Wave Period
APD
sec
5-day plot - Mean Wave Direction
MWD
 
5-day plot - Atmospheric Pressure
PRES
in
5-day plot - Pressure Tendency
PTDY
in
5-day plot - Air Temperature
ATMP
°F
5-day plot - Water Temperature
WTMP
°F
5-day plot - Dew Point
DEWP
°F
5-day plot - Salinity
SAL
psu
5-day plot - Visibility
VIS
nmi
5-day plot - Tide (above MLLW)
TIDE
ft
2024-07-24 08:10 pm SE 7.0------- 80.6- 75.2- 8.7-
2024-07-24 07:55 pm- 6.0------- 80.6- 75.2- 8.7-
2024-07-24 07:35 pm- 6.0------- 80.6- 73.4- 8.7-
2024-07-24 07:15 pmSSE 7.0------- 78.8- 73.4- 8.7-
2024-07-24 06:55 pm S 8.9 15.9------ 78.8- 73.4- 8.7-
2024-07-24 06:30 pm--------- 78.8- 71.6- 7.8-
2024-07-24 06:15 pm--------- 78.8- 73.4- 7.8-
2024-07-24 05:55 pm S 13.0 21.0------ 78.8- 73.4- 6.1-
2024-07-24 05:35 pm--------- 78.8- 73.4- 7.0-
2024-07-24 05:15 pm--------- 78.8- 73.4- 7.8-
2024-07-24 04:55 pm--------- 77.0- 75.2- 7.0-
2024-07-24 04:35 pm--------- 77.0- 75.2- 6.1-
2024-07-24 04:15 pm--------- 77.0- 75.2- 4.3-
2024-07-24 03:55 pm--------- 77.0- 73.4- 7.0-
2024-07-24 03:35 pm--------- 77.0- 73.4- 7.8-
2024-07-24 03:15 pm S 15.0 22.9------ 77.0- 73.4- 7.0-
2024-07-24 02:55 pmSSW 8.9 15.0------ 77.0- 73.4- 5.2-
2024-07-24 02:35 pm--------- 77.0- 73.4- 4.3-
2024-07-24 02:15 pm--------- 75.2- 71.6- 2.6-
2024-07-24 01:55 pm--------- 75.2- 73.4- 1.3-
2024-07-24 01:35 pm--------- 77.0- 73.4- 1.5-
2024-07-24 01:15 pm--------- 77.0- 73.4- 1.5-
2024-07-24 12:55 pm--------- 77.0- 75.2- 3.5-
2024-07-24 12:35 pmSSE 22.0 33.0------ 77.0- 75.2- 0.4-
2024-07-24 12:15 pmSSW 7.0------- 80.6- 69.8- 8.7-
2024-07-24 11:55 am- 2.9------- 80.6- 69.8- 8.7-
2024-07-24 11:35 am--------- 78.8- 71.6- 7.8-
2024-07-24 11:15 am W 9.9------- 80.6- 71.6- 4.3-
2024-07-24 10:55 amWNW 11.1------- 78.8- 73.4- 7.8-
2024-07-24 10:35 am W 8.0------- 77.0- 71.6- 7.0-
2024-07-24 10:15 amWSW 8.0 17.1------ 77.0- 73.4- 6.1-
2024-07-24 09:55 am--------- 78.8- 71.6- 3.5-
2024-07-24 09:35 am--------- 78.8- 68.0- 6.1-
2024-07-24 09:15 amWSW 7.0 13.0------ 78.8- 71.6- 2.2-
2024-07-24 08:55 amWSW 15.0------- 78.8- 71.6- 1.5-
2024-07-24 08:35 amWSW 7.0 13.0------ 78.8- 73.4- 1.1-
2024-07-24 08:15 am W 13.0------- 78.8- 75.2- 1.1-
2024-07-24 07:55 amWSW 20.0------- 77.0- 75.2- 1.1-
2024-07-24 07:35 am W 11.1 24.1------ 77.0- 75.2- 0.2-
2024-07-24 07:15 am W 22.0 32.1------ 77.0- 75.2- 0.2-
2024-07-24 06:55 amWNW 18.1------- 78.8- 77.0- 0.2-
2024-07-24 06:35 amWSW 11.1 24.1------ 82.4- 78.8- 7.8-
2024-07-24 06:15 am S 14.0 20.0------ 82.4- 77.0- 8.7-
2024-07-24 05:55 am S 15.0 22.9------ 82.4- 77.0- 7.8-
2024-07-24 05:35 am SW 11.1 24.1------ 80.6- 77.0- 1.1-
2024-07-24 05:15 am SW 24.1 32.1------ 77.0- 73.4- 1.7-
2024-07-24 04:55 am S 20.0 42.0------ 78.8- 73.4- 7.0-
2024-07-24 04:35 amSSW 20.0------- 82.4- 77.0- 8.7-
2024-07-24 04:15 am SE 7.0 28.9------ 78.8- 75.2- 0.2-
2024-07-24 03:55 am S 21.0 40.0------ 77.0- 73.4- 1.1-
2024-07-24 03:35 am S 18.1------- 82.4- 75.2- 8.7-
2024-07-24 03:15 am S 17.1------- 82.4- 75.2- 3.5-
2024-07-24 02:55 am S 15.0 20.0------ 82.4- 75.2- 8.7-
2024-07-24 02:35 am S 15.0------- 82.4- 75.2- 8.7-
2024-07-24 02:15 am S 14.0------- 82.4- 75.2- 8.7-
2024-07-24 01:55 amSSE 8.9 15.9------ 82.4- 73.4- 8.7-
2024-07-24 01:35 amSSE 12.0------- 84.2- 73.4- 8.7-
2024-07-24 01:15 am SE 13.0------- 84.2- 73.4- 8.7-
2024-07-24 12:55 am SE 12.0------- 84.2- 73.4- 8.7-
2024-07-24 12:35 am SE 9.9------- 82.4- 75.2- 8.7-
2024-07-24 12:15 amESE 7.0------- 82.4- 75.2- 8.7-
2024-07-23 11:55 pm SE 8.9------- 82.4- 75.2- 8.7-
2024-07-23 11:35 pm SE 11.1------- 82.4- 73.4- 8.7-
2024-07-23 11:15 pm SE 12.0------- 82.4- 73.4- 8.7-
2024-07-23 10:55 pm SE 11.1------- 82.4- 73.4- 8.7-
2024-07-23 10:35 pm SE 11.1------- 82.4- 73.4- 8.7-
2024-07-23 10:15 pmESE 9.9------- 82.4- 73.4- 8.7-
2024-07-23 09:55 pmESE 8.9------- 82.4- 75.2- 8.7-
2024-07-23 09:35 pmENE 9.9------- 80.6- 75.2- 8.7-
2024-07-23 09:15 pmENE 9.9------- 80.6- 75.2- 8.7-
2024-07-23 08:55 pmENE 11.1------- 80.6- 75.2- 8.7-
2024-07-23 08:35 pmENE 8.0------- 80.6- 75.2- 7.8-
2024-07-23 08:15 pmENE 8.0------- 80.6- 73.4- 8.7-
2024-07-23 07:50 pmENE 7.0------- 80.6- 73.4- 2.6-